Regional Weather Roundup
Issued by NWS Bismarck, ND

Home | Current Version | Previous Version | Text Only | Print | Product List | Glossary On
Versions: 1 2 3 4 5 6 7 8 9 10 11 12 13 14 15 16 17 18 19 20 21 22 23 24 25 26 27 28 29 30 31 32 33 34 35 36 37 38 39 40 41 42 43 44 45 46 47 48 49 50
000
ASUS43 KBIS 240510
RWRBIS

NWR BROADCAST TEXT
NATIONAL WEATHER SERVICE BISMARCK ND
1100 PM CST THU FEB 23 2017

NOTE: "FAIR" INDICATES FEW OR NO CLOUDS BELOW 12,000 FEET WITH NO
SIGNIFICANT WEATHER AND/OR OBSTRUCTIONS TO VISIBILITY.


CITY           SKY/WX    TMP DP  RH WIND       PRES   REMARKS
WILLISTON      FAIR      12   9  87 CALM      30.16S
MINOT          MOCLDY    20  15  81 SW7       30.13S WCI  11
MINOT AFB      CLOUDY    19  15  84 W7        30.13S WCI  10
BISMARCK       MOCLDY    19  14  81 N9        30.13R WCI   8
DICKINSON      FAIR      12   8  84 N5        30.08R WCI   4
GARRISON         N/A     12   8  84 N6        30.12S WCI   3
HETTINGER ARPT FAIR      19  14  81 N13       30.08R WCI   6
JAMESTOWN      MOCLDY    22  16  78 N13       30.09R WCI  10
CARRINGTON     FAIR      18  16  93 N8        30.12R WCI   7
HAZEN            N/A    N/A N/A N/A CALM      30.16R
MANDAN         CLOUDY    18  14  86 N9        30.12R WCI   6
RUGBY            N/A      9   9 100 CALM      30.12F
STANLEY        CLOUDY    14  14 100 W6        30.14S WCI   5
TIOGA          CLOUDY    14  14 100 W6        30.15S WCI   5
WATFORD CITY   FAIR      10  10 100 CALM      30.15S
$$

CITY           SKY/WX    TMP DP  RH WIND       PRES   REMARKS
GRAND FORKS    FAIR      20  11  68 N10       30.13R WCI   9
GRAND FORKS AF FAIR      18  15  87 N8        30.13S WCI   7
DEVILS LAKE    FAIR      16  12  84 N8        30.11F WCI   5
FARGO          CLOUDY    23  15  71 N16       30.10R WCI  10
CAVALIER         N/A     14  10  85 NW3       30.15S
GRAFTON        FAIR      18  16  93 N8        30.16S WCI   7
GWINNER        FAIR      23  18  80 N17       30.09R WCI   9
ROLLA          CLOUDY    19  16  86 W7        30.10S WCI  10
$$

CITY           SKY/WX    TMP DP  RH WIND       PRES   REMARKS
ABERDEEN       MOCLDY    23  15  71 N24       30.04S WCI   7
MOBRIDGE       CLOUDY    28  19  69 N14       30.04R WCI  17
BUFFALO          N/A     25  23  92 NE15      29.97R WCI  13
RAPID CITY     FLURRIES  25  21  85 NE14      29.98S WCI  13
GLASGOW        CLOUDY    25  19  78 SE8       30.11S WCI  16
SIDNEY         CLOUDY    25  18  74 E6        30.15S WCI  18
WOLF POINT     CLOUDY    27  19  72 E8        30.14F WCI  19
GLENDIVE       FLURRIES  25  23  92 NE8       30.11S WCI  16
MILES CITY     CLOUDY    28  24  85 NE10      30.05F WCI  19
BAKER          CLOUDY    24  21  88 E8        30.06S WCI  15
$$

CITY           SKY/WX    TMP DP  RH WIND       PRES   REMARKS
BILLINGS       FLURRIES  26  24  92 NE13      29.97F WCI  15
GREAT FALLS    CLOUDY    24  22  91 NE8       29.96F WCI  15
REGINA         CLOUDY    27  18  69 W2        30.11F
ESTEVAN        MOCLDY    25  19  80 W7        30.13R WCI  17
$$




USA.gov is the U.S. government's official web portal to all federal, state and local government web resources and services.